{"data":{"norad_id":59290,"epoch":"2026-09-21T23:25:54.759072Z","epoch_age_seconds":133028,"freshness":"FRESH","line1":"1 59290U 24053C   26264.97632823  .00012530  00000+0  25557-3 0  9996","line2":"2 59290  49.9871 191.5155 0002643  40.7223 319.3938 15.46537110136071","mean_motion":15.4653711,"eccentricity":0.0002643,"inclination_deg":49.9871,"raan_deg":191.5155,"arg_perigee_deg":40.7223,"mean_anomaly_deg":319.3938,"bstar":0.00025557,"rev_number":13607,"period_min":93.111247747556,"perigee_km":425.06675773363,"apogee_km":428.6638819599,"semimajor_km":6805.0023198468,"source":"CELESTRAK","updated_at":"2026-09-23T09:00:19.285679Z"}}